Regional Weather Roundup
Issued by NWS

Home | Current Version | Previous Version | Graphics & Text | Print | Product List | Glossary On
Versions: 1 2 3 4 5 6 7 8 9 10 11 12 13 14 15 16 17 18 19 20 21 22 23 24 25 26 27 28 29 30 31 32 33 34 35 36 37 38 39 40 41 42 43 44 45 46 47 48 49 50
000
ASUS45 KBOI 070410
RWRID
WEATHER ROUNDUP FOR IDAHO
NATIONAL WEATHER SERVICE BOISE ID
1000 PM MDT WED MAY 06 2015

NOTE: "FAIR" INDICATES FEW OR NO CLOUDS BELOW 12000 FEET
WITH NO SIGNIFICANT WEATHER AND/OR OBSTRUCTIONS TO VISIBILITY

IDZ012-014-070500-
SOUTHWEST IDAHO


CITY           SKY/WX    TMP DP  RH WIND       PRES   REMARKS
BOISE          MOCLDY    54  25  32 NW13      29.80R
CALDWELL       MOCLDY    52  27  37 NW15G24   29.84R
MOUNTAIN HOME  MOCLDY    54  19  24 NW14      29.78R
$$

IDZ016-017-070500-
SOUTHCENTRAL IDAHO


CITY           SKY/WX    TMP DP  RH WIND       PRES   REMARKS
BURLEY         CLOUDY    48  38  68 SW8       29.77R
JEROME         CLOUDY    51  20  29 SW10      29.77R
TWIN FALLS     CLOUDY    52  21  29 SW13      29.76R
$$

IDZ019>023-070500-
SOUTHEAST IDAHO


CITY           SKY/WX    TMP DP  RH WIND       PRES   REMARKS
IDAHO FALLS    LGT RAIN  51  44  77 E5        29.79R
POCATELLO      LGT RAIN  50  44  80 S5        29.79R
REXBURG        LGT RAIN  48  44  86 NE6       29.80R
$$

IDZ006-010-011-018-031-032-070500-
CENTRAL IDAHO MOUNTAINS


CITY           SKY/WX    TMP DP  RH WIND       PRES   REMARKS
MCCALL         PTCLDY    40  30  67 N12       29.86R WCI  33
HAILEY         MOCLDY    46  30  53 SE6       29.78R
STANLEY          N/A     40  30  67 N6        29.85R
SALMON         CLOUDY    46  39  76 SE5       29.84R
CHALLIS        CLOUDY    48  36  63 NW10      29.80R
$$

IDZ002-004-006-007-026-070500-
NORTHERN IDAHO


CITY           SKY/WX    TMP DP  RH WIND       PRES   REMARKS
LEWISTON       MOCLDY    58  28  32 W10       29.91R
LOWELL           N/A     53  42  66 CALM      29.94R
COEUR D`ALENE  PTCLDY    52  27  37 NW3       29.95R
MULLAN PASS    PTCLDY    37  22  54 N7        29.93R WCI  32
$$



USA.gov is the U.S. government's official web portal to all federal, state and local government web resources and services.